Location: Unspecified
(0.0000°N, 0.0000°E)
Time: 19:36:00
(UTC+00:00)

SR - Visible Passes

Search period start: 31 July 2014 00:00
Search period end: 10 August 2014 00:00
Orbit: 575 x 890 km, 66.7° (Epoch: 30 July)

Date Brightness Start Highest point End Pass type
(mag) Time Alt. Az. Time Alt. Az. Time Alt. Az.
31 Jul ? 20:35:46 10° N 20:36:39 14° N 20:36:39 14° N visible
01 Aug ? 19:48:58 10° NNE 19:50:17 14° NE 19:50:17 14° NE visible
02 Aug ? 20:41:19 10° NNW 20:43:32 24° NNW 20:43:32 24° NNW visible
03 Aug ? 19:53:21 10° N 19:57:20 39° NNE 19:57:20 39° NNE visible
04 Aug ? 19:06:29 10° NNE 19:10:29 20° ENE 19:11:13 20° E visible
04 Aug ? 20:47:55 10° NW 20:50:47 23° W 20:50:47 23° W visible
05 Aug ? 19:58:55 10° NNW 20:04:24 66° WSW 20:04:44 64° SW visible
06 Aug ? 19:10:55 10° N 19:16:17 50° ENE 19:18:47 28° SE visible
07 Aug ? 20:05:35 10° NW 20:10:00 26° WSW 20:12:28 18° SSW visible
08 Aug ? 19:16:31 10° NNW 19:21:58 64° WSW 19:26:38 12° S visible
09 Aug ? 18:28:29 10° N 18:33:50 51° ENE 18:38:46 10° SE visible
